[[{"header":{"parameterUnit":"m.s-1","parameterCategory":1,"la1":30.2991,"la2":30.254,"lo1":-89.0895,"lo2":-89.0444,"dy":0.0017,"dx":0.0017,"nx":28,"ny":28,"refTime":"2025-01-15T09:00:00:Z","depth":0,"parameterNumber":2,"parameterNumberName":"U-component_of_WINDS"},"data":[0,0,0,0,0,0,0,0,0,0,0,0,0,0,0,0,0,0,0,0,0,0,0,0,0,0,0,0,0,0,0,0,0,0,0,0,0,0,0,0,0,0,0,0,0,0,0,0,0,0,0,0,0,0,0,0,0,0,-1.4409,-1.441,0,-1.4479,-1.448,-1.4481,-1.4428,-1.4425,-1.4423,-1.4421,-1.4498,-1.4502,-1.4506,0,0,0,0,0,0,0,0,0,0,0,0,0,-1.4232,-1.4236,-1.4409,-1.441,-1.4411,-1.4479,-1.448,-1.4481,-1.4428,-1.4425,-1.4422,-1.442,-1.4496,-1.4501,-1.4506,0,0,0,0,0,0,0,0,0,0,0,0,0,-1.4306,-1.4237,-1.4409,-1.4392,-1.4391,-1.4479,-1.448,-1.4481,-1.4429,-1.4425,-1.4422,-1.4418,-1.4495,-1.4501,-1.4507,-1.4616,0,0,-1.4526,-1.4529,0,0,0,0,0,0,0,0,-1.4302,-1.4313,-1.4394,-1.4394,-1.4393,-1.4441,-1.4446,-1.4527,-1.443,-1.4415,-1.4421,-1.4417,-1.4482,-1.4489,-1.451,-1.4619,-1.4623,-1.4527,-1.4531,-1.4533,-1.4535,0,0,0,0,0,0,0,-1.4297,-1.431,-1.4437,-1.4395,-1.4395,-1.4383,-1.4389,-1.4461,-1.4467,-1.4416,-1.4412,-1.4421,-1.4481,-1.4504,-1.4512,-1.4624,-1.4527,-1.4532,-1.4536,-1.4539,-1.4826,-1.4829,0,0,0,0,0,0,-1.4293,-1.4306,-1.4434,-1.4439,-1.4338,-1.4389,-1.4396,-1.4429,-1.4466,-1.4468,-1.4424,-1.4418,-1.4495,-1.4504,-1.4514,-1.4645,-1.4533,-1.4539,-1.4543,-1.4822,-1.4827,-1.4831,0,0,0,0,0,0,-1.4289,-1.4305,-1.4432,-1.4371,-1.4386,-1.4395,-1.4433,-1.4432,-1.4455,-1.4472,-1.4473,-1.4446,-1.4493,-1.4505,-1.4591,-1.4646,-1.4542,-1.4548,-1.4817,-1.4823,-1.4829,-1.4906,0,0,0,0,0,0,-1.4285,-1.4304,-1.4345,-1.4373,-1.439,-1.4506,-1.4436,-1.4436,-1.4466,-1.4459,-1.4493,-1.4496,-1.4491,-1.4581,-1.4597,-1.4653,-1.4553,-1.4813,-1.482,-1.4827,-1.4899,-1.4914,-1.4927,0,0,0,0,0,-1.4278,-1.4365,-1.4347,-1.4363,-1.4441,-1.451,-1.452,-1.4511,-1.4471,-1.4512,-1.4523,-1.4495,-1.4637,-1.4591,-1.4608,-1.4667,-1.4809,-1.4818,-1.4826,-1.4892,-1.4911,-1.4926,0,0,0,0,0,0,-1.4346,-1.4368,-1.4349,-1.4447,-1.4476,-1.4501,-1.4553,-1.4531,-1.4574,-1.4566,-1.4555,-1.4563,-1.4653,-1.4668,-1.4616,-1.4774,-1.4717,-1.4729,-1.4761,-1.4779,-1.4793,-1.4788,-1.4558,0,0,0,0,0,-1.4371,-1.4424,-1.4441,-1.4526,-1.4541,-1.4545,-1.4574,-1.4565,-1.4596,-1.4609,-1.4626,-1.4658,-1.471,-1.4745,-1.4793,-1.4899,-1.4907,-1.4948,-1.4962,-1.4974,-1.4986,-1.5043,-1.5063,-1.4859,-1.4859,-1.4859,0,0,-1.4426,-1.4445,-1.4479,-1.454,-1.4562,-1.4618,-1.4556,-1.4618,-1.466,-1.4619,-1.47,-1.4714,-1.4749,-1.4845,-1.4889,-1.4861,-1.5043,-1.4985,-1.4994,-1.5,-1.5054,-1.5074,-1.5091,-1.4865,-1.4864,-1.4863,0,0,-1.4555,-1.4573,-1.4646,-1.4669,-1.4702,-1.4703,-1.4721,-1.4748,-1.4755,-1.4836,-1.4806,-1.4856,-1.4945,-1.4972,-1.4997,-1.5134,-1.511,-1.515,-1.5224,-1.5281,-1.5297,-1.5311,-1.5362,-1.538,-1.5161,-1.5161,-1.5161,0,-1.462,-1.4702,-1.4687,-1.4751,-1.4779,-1.4741,-1.4816,-1.4839,-1.4887,-1.4908,-1.4875,-1.4986,-1.5007,-1.511,-1.5143,-1.5164,-1.5184,-1.5147,-1.5295,-1.531,-1.5323,-1.5371,-1.539,-1.5166,-1.5165,-1.5165,-1.5164,0,-1.478,-1.4837,-1.4892,-1.4938,-1.4971,-1.5041,-1.5037,-1.5073,-1.506,-1.5065,-1.5148,-1.5172,-1.5225,-1.5247,-1.5236,-1.5348,-1.533,-1.5297,-1.524,-1.5347,-1.5392,-1.541,-1.5173,-1.5171,-1.5169,-1.5168,0,0,-1.4956,-1.4991,-1.5012,-1.5032,-1.5065,-1.511,-1.5176,-1.5226,-1.5258,-1.5292,-1.5349,-1.5425,-1.5393,-1.5422,-1.5413,-1.5462,-1.557,-1.5422,-1.5423,-1.5451,-1.5697,-1.5724,-1.5746,-1.5553,-1.5557,-1.5559,-1.5695,0,-1.5088,-1.5204,-1.5192,-1.5303,-1.5356,-1.532,-1.5378,-1.5406,-1.5411,-1.5458,-1.5465,-1.5519,-1.5473,-1.549,-1.5537,-1.5547,-1.562,-1.5537,-1.5609,-1.5611,-1.5604,-1.5769,-1.5798,-1.5925,-1.5712,-1.5715,-1.5717,0,-1.5259,-1.5297,-1.5412,-1.5436,-1.5458,-1.5511,-1.5556,-1.56,-1.563,-1.5631,-1.5662,-1.5643,-1.5712,-1.5651,-1.5746,-1.569,-1.5718,-1.5727,-1.5732,-1.5741,-1.5673,-1.5785,-1.5965,-1.5985,-1.5745,-1.5742,-1.574,0,-1.5378,-1.5458,-1.5538,-1.5556,-1.5585,-1.5623,-1.5638,-1.5664,-1.5694,-1.5733,-1.5753,-1.58,-1.5827,-1.5864,-1.5859,-1.5815,-1.5957,-1.5895,-1.5961,-1.5961,-1.5995,-1.5994,-1.6185,-1.6009,-1.6009,-1.6008,-1.6008,0,-1.5528,-1.5601,-1.5592,-1.5641,-1.5722,-1.5707,-1.5787,-1.5797,-1.582,-1.5872,-1.5843,-1.5892,-1.5881,-1.593,-1.5927,-1.6007,-1.6019,-1.6022,-1.6021,-1.6027,-1.6027,-1.6047,-1.6039,-1.6013,-1.6012,-1.6011,-1.601,0,-1.5677,-1.5673,-1.5758,-1.5778,-1.5785,-1.5844,-1.5861,-1.5908,-1.591,-1.5976,-1.599,-1.5994,-1.6051,-1.6048,-1.6113,-1.611,-1.6209,-1.6196,-1.6199,-1.6198,-1.6264,-1.6259,-1.6479,-1.6507,-1.631,-1.6312,-1.6313,0,-1.5775,-1.583,-1.5855,-1.5886,-1.5903,-1.5954,-1.5984,-1.5971,-1.6004,-1.6042,-1.6085,-1.6137,-1.618,-1.6271,-1.6281,-1.633,-1.632,-1.6393,-1.6327,-1.6331,-1.6324,-1.6321,-1.6328,-1.6407,-1.6409,-1.6411,-1.6413,0,-1.5949,-1.5944,-1.5988,-1.6032,-1.6069,-1.6103,-1.6134,-1.6162,-1.6152,-1.6191,-1.6247,-1.6279,-1.6343,-1.6397,-1.6443,-1.6459,-1.6436,-1.6432,-1.6451,-1.6459,-1.6459,-1.6462,-1.6237,-1.6429,-1.6427,-1.6426,-1.6425,-1.6424,-1.6077,-1.6125,-1.6149,-1.62,-1.6221,-1.625,-1.6295,-1.6302,-1.6348,-1.6399,-1.6387,-1.6451,-1.6479,-1.6538,-1.6558,-1.6609,-1.6583,-1.6609,-1.6616,-1.6623,-1.6632,-1.6448,-1.6617,-1.6616,-1.6616,-1.6615,-1.6615,0,-1.6252,-1.6266,-1.6312,-1.6355,-1.6395,-1.6365,-1.6398,-1.6433,-1.6489,-1.6516,-1.6557,-1.6622,-1.6673,-1.6686,-1.6735,-1.6773,-1.6764,-1.6787,-1.6786,-1.679,-1.6651,-1.6631,-1.6794,-1.6794,-1.6794,-1.6794,-1.6794,-1.6794,-1.6348,-1.6427,-1.6424,-1.6513,-1.6526,-1.6587,-1.6608,-1.6635,-1.6657,-1.673,-1.6772,-1.6778,-1.68,-1.685,-1.6897,-1.6899,-1.692,-1.6948,-1.6947,-1.6817,-1.68,-1.6783,-1.6764,-1.6952,-1.6952,-1.7082,-1.7083,-1.7084]},{"header":{"parameterUnit":"m.s-1","parameterCategory":1,"la1":30.2991,"la2":30.254,"lo1":-89.0895,"lo2":-89.0444,"dy":0.0017,"dx":0.0017,"nx":28,"ny":28,"refTime":"2025-01-15T09:00:00:Z","depth":0,"parameterNumber":3,"parameterNumberName":"V-component_of_WINDS"},"data":[0,0,0,0,0,0,0,0,0,0,0,0,0,0,0,0,0,0,0,0,0,0,0,0,0,0,0,0,0,0,0,0,0,0,0,0,0,0,0,0,0,0,0,0,0,0,0,0,0,0,0,0,0,0,0,0,0,0,-3.3405,-3.3406,0,-3.3477,-3.3477,-3.3478,-3.3439,-3.3437,-3.3435,-3.3433,-3.3504,-3.3508,-3.3511,0,0,0,0,0,0,0,0,0,0,0,0,0,-3.3232,-3.3235,-3.3405,-3.3406,-3.3407,-3.3476,-3.3477,-3.3478,-3.3439,-3.3437,-3.3435,-3.3433,-3.3503,-3.3507,-3.3512,0,0,0,0,0,0,0,0,0,0,0,0,0,-3.3305,-3.3236,-3.3405,-3.3396,-3.3396,-3.3476,-3.3477,-3.3479,-3.344,-3.3437,-3.3434,-3.3431,-3.3501,-3.3507,-3.3512,-3.3605,0,0,-3.3529,-3.3532,0,0,0,0,0,0,0,0,-3.3301,-3.3312,-3.3396,-3.3397,-3.3397,-3.3446,-3.3442,-3.3521,-3.3441,-3.3423,-3.3433,-3.343,-3.3487,-3.3493,-3.3513,-3.3608,-3.3611,-3.353,-3.3533,-3.3535,-3.3537,0,0,0,0,0,0,0,-3.3296,-3.3308,-3.3433,-3.3398,-3.3398,-3.3387,-3.3394,-3.3457,-3.347,-3.3424,-3.3422,-3.3431,-3.3486,-3.3508,-3.3515,-3.3612,-3.353,-3.3534,-3.3538,-3.354,-3.3785,-3.3788,0,0,0,0,0,0,-3.3292,-3.3304,-3.3431,-3.3435,-3.3341,-3.3393,-3.3401,-3.3433,-3.347,-3.3473,-3.3433,-3.3429,-3.35,-3.3508,-3.3517,-3.3627,-3.3535,-3.3541,-3.3544,-3.3782,-3.3786,-3.3789,0,0,0,0,0,0,-3.3288,-3.3304,-3.3428,-3.3369,-3.3384,-3.3399,-3.3435,-3.3436,-3.3458,-3.3476,-3.3478,-3.3453,-3.3498,-3.3509,-3.3583,-3.3629,-3.3543,-3.3548,-3.3778,-3.3783,-3.3787,-3.3848,0,0,0,0,0,0,-3.3284,-3.3303,-3.3339,-3.337,-3.3388,-3.3495,-3.3438,-3.344,-3.3468,-3.3462,-3.3495,-3.3498,-3.3497,-3.3575,-3.3589,-3.3635,-3.3552,-3.3774,-3.378,-3.3786,-3.3842,-3.3855,-3.3865,0,0,0,0,0,-3.3278,-3.3353,-3.3341,-3.3357,-3.3433,-3.3497,-3.3507,-3.3504,-3.3471,-3.3507,-3.3519,-3.3497,-3.3622,-3.3583,-3.3598,-3.3647,-3.3771,-3.3778,-3.3785,-3.3837,-3.3852,-3.3865,0,0,0,0,0,0,-3.3326,-3.3357,-3.3344,-3.3432,-3.3463,-3.3491,-3.3536,-3.352,-3.356,-3.3553,-3.3548,-3.3555,-3.3632,-3.3647,-3.3603,-3.3737,-3.3691,-3.3701,-3.3725,-3.374,-3.3751,-3.3746,-3.3557,0,0,0,0,0,-3.3347,-3.3397,-3.3421,-3.3497,-3.3513,-3.3522,-3.3549,-3.3545,-3.3575,-3.3588,-3.3605,-3.3635,-3.368,-3.3711,-3.3754,-3.3844,-3.385,-3.3885,-3.3896,-3.3905,-3.3915,-3.3962,-3.3977,-3.3813,-3.3812,-3.3812,0,0,-3.3391,-3.3414,-3.3446,-3.3507,-3.353,-3.3581,-3.3533,-3.3589,-3.3626,-3.3596,-3.3667,-3.3681,-3.3713,-3.3796,-3.3833,-3.381,-3.3961,-3.3914,-3.3922,-3.3926,-3.3971,-3.3987,-3.4,-3.3817,-3.3816,-3.3816,0,0,-3.3497,-3.352,-3.3585,-3.3609,-3.3644,-3.365,-3.3665,-3.3695,-3.3703,-3.3775,-3.3753,-3.3796,-3.3875,-3.3899,-3.3922,-3.4035,-3.4016,-3.4049,-3.4109,-3.4156,-3.4169,-3.418,-3.422,-3.4235,-3.4058,-3.4059,-3.4059,0,-3.3547,-3.3624,-3.362,-3.3678,-3.3705,-3.368,-3.3745,-3.3768,-3.3815,-3.3834,-3.3808,-3.3906,-3.3926,-3.4013,-3.404,-3.406,-3.4076,-3.4046,-3.4167,-3.4179,-3.4189,-3.4227,-3.4243,-3.4062,-3.4062,-3.4062,-3.4061,0,-3.3684,-3.3737,-3.3785,-3.3832,-3.3864,-3.3925,-3.3929,-3.3962,-3.3954,-3.3961,-3.4033,-3.4057,-3.4104,-3.4124,-3.4116,-3.4209,-3.4194,-3.4168,-3.4121,-3.4209,-3.4245,-3.4259,-3.4068,-3.4066,-3.4065,-3.4064,0,0,-3.3824,-3.3867,-3.3885,-3.3905,-3.3941,-3.3982,-3.4041,-3.4088,-3.4115,-3.4148,-3.4197,-3.4264,-3.424,-3.4265,-3.426,-3.4301,-3.4388,-3.4269,-3.427,-3.429,-3.4491,-3.4511,-3.4528,-3.4375,-3.4378,-3.438,-3.4488,0,-3.3932,-3.4037,-3.4034,-3.4131,-3.418,-3.4156,-3.4207,-3.4234,-3.4243,-3.4284,-3.4292,-3.434,-3.4304,-3.4319,-3.4359,-3.4369,-3.4428,-3.4361,-3.442,-3.4422,-3.4413,-3.4546,-3.4568,-3.4669,-3.4502,-3.4504,-3.4506,0,-3.4073,-3.4111,-3.4213,-3.4241,-3.4262,-3.4308,-3.435,-3.439,-3.442,-3.4422,-3.4451,-3.4438,-3.4497,-3.4448,-3.4528,-3.4483,-3.4506,-3.4514,-3.4518,-3.4524,-3.447,-3.4556,-3.4701,-3.4716,-3.4528,-3.4526,-3.4525,0,-3.4165,-3.4241,-3.4312,-3.433,-3.4365,-3.4398,-3.4414,-3.444,-3.4468,-3.4504,-3.4522,-3.4564,-3.4587,-3.4619,-3.4618,-3.4582,-3.4698,-3.465,-3.4701,-3.4702,-3.4727,-3.4726,-3.4879,-3.4742,-3.4742,-3.4742,-3.4741,0,-3.4286,-3.435,-3.4354,-3.4397,-3.4467,-3.4462,-3.4531,-3.4543,-3.4567,-3.4611,-3.4592,-3.4634,-3.463,-3.4672,-3.4671,-3.4737,-3.4747,-3.475,-3.4749,-3.4752,-3.4752,-3.4768,-3.4761,-3.4746,-3.4745,-3.4744,-3.4743,0,-3.4401,-3.4406,-3.4482,-3.4508,-3.4516,-3.4566,-3.4588,-3.4629,-3.4635,-3.4691,-3.4704,-3.4713,-3.4761,-3.4763,-3.4818,-3.4818,-3.4898,-3.4889,-3.4888,-3.4887,-3.4938,-3.4933,-3.5107,-3.5129,-3.4978,-3.498,-3.4981,0,-3.4479,-3.4527,-3.4558,-3.4587,-3.4605,-3.4652,-3.468,-3.4676,-3.4706,-3.4742,-3.4778,-3.4824,-3.4862,-3.4939,-3.495,-3.4992,-3.4984,-3.5041,-3.499,-3.4991,-3.4984,-3.4982,-3.4986,-3.5052,-3.5053,-3.5055,-3.5056,0,-3.4616,-3.4615,-3.4657,-3.47,-3.4734,-3.4767,-3.4798,-3.4822,-3.4822,-3.4856,-3.4905,-3.4934,-3.499,-3.5036,-3.5076,-3.5091,-3.5073,-3.5072,-3.5086,-3.509,-3.5087,-3.5089,-3.4916,-3.5068,-3.5067,-3.5066,-3.5065,-3.5065,-3.4714,-3.4755,-3.4784,-3.4831,-3.4853,-3.4882,-3.4921,-3.4932,-3.4973,-3.5019,-3.5014,-3.5069,-3.5095,-3.5147,-3.5165,-3.5207,-3.5187,-3.5207,-3.5213,-3.5218,-3.5223,-3.508,-3.5214,-3.5214,-3.5213,-3.5213,-3.5213,0,-3.485,-3.4867,-3.491,-3.4953,-3.499,-3.497,-3.5003,-3.5034,-3.5083,-3.5109,-3.5146,-3.5202,-3.5246,-3.526,-3.5302,-3.5332,-3.5325,-3.5344,-3.5342,-3.5345,-3.5239,-3.5222,-3.5349,-3.5349,-3.5349,-3.5349,-3.5349,-3.5349,-3.4925,-3.4994,-3.4997,-3.5076,-3.5091,-3.5145,-3.5166,-3.5191,-3.5213,-3.5276,-3.5313,-3.5322,-3.5343,-3.5386,-3.5425,-3.5428,-3.5444,-3.5466,-3.5465,-3.5366,-3.5353,-3.534,-3.5324,-3.547,-3.547,-3.5568,-3.5569,-3.557]}]]